Powrót do katalogu

FENGYUN 1C DEB

AktywnySSO
NORAD 36230·DEBRIS·🇨🇳 China

Wystrzelony May 10, 1999 z Taiyuan Satellite Launch Center

Loading…

Następne Przeloty (najbliższe 24 godziny)

TLE

Starzejące sięSource: Space-Track

Epoka: Sep 10, 2026, 01:33 UTC

1 36230U 99025DVF 26253.06483261  .00001156  00000-0  10405-2 0  9992
2 36230  99.5153 332.9970 0214630 152.5910 208.6756 13.76194439656176

Śledź FENGYUN 1C DEB w czasie rzeczywistym z AllMySat

Download on the App Store